VKG4569 EKCH-ESSP

Flight info

Callsign VKG4569
Flight time 0h 42m
Altitude 27000
Route KEMAX N851 PELUP
Aircraft A321/M-SDE2E3FGHIJ1RWXYZ/LB2

Departure

Time 2026-05-07 08:14
Airport Copenhagen Kastrup Airport (EKCH)

Arrival

Time 2026-05-07 08:57
Airport Norrköping Airport (ESSP)
Time Latitude Longitude Altitude Speed Heading
2026-05-07 07:53 55.62892 12.63804 17 ft 0 kts 12°
2026-05-07 08:06 55.62889 12.63803 17 ft 3 kts 12°
2026-05-07 08:06 55.62868 12.63795 17 ft 4 kts 25°
2026-05-07 08:07 55.62853 12.63768 18 ft 4 kts 89°
2026-05-07 08:07 55.62857 12.63726 17 ft 4 kts 100°
2026-05-07 08:07 55.62859 12.63686 17 ft 2 kts 89°
2026-05-07 08:07 55.62859 12.63668 17 ft 0 kts 89°
2026-05-07 08:10 55.62859 12.63694 17 ft 7 kts 91°
2026-05-07 08:10 55.62845 12.63813 19 ft 10 kts 103°
2026-05-07 08:10 55.62822 12.63930 17 ft 10 kts 125°
2026-05-07 08:11 55.62767 12.63959 17 ft 9 kts 210°
2026-05-07 08:11 55.62696 12.63880 18 ft 15 kts 207°
2026-05-07 08:11 55.62613 12.63960 17 ft 19 kts 126°
2026-05-07 08:11 55.62514 12.64220 17 ft 28 kts 123°
2026-05-07 08:12 55.62425 12.64424 17 ft 17 kts 146°
2026-05-07 08:12 55.62315 12.64415 17 ft 16 kts 195°
2026-05-07 08:12 55.62203 12.64349 16 ft 18 kts 204°
2026-05-07 08:12 55.62097 12.64260 17 ft 16 kts 206°
2026-05-07 08:13 55.61996 12.64175 17 ft 16 kts 204°
2026-05-07 08:13 55.61895 12.64096 19 ft 16 kts 201°
2026-05-07 08:13 55.61788 12.64080 18 ft 15 kts 178°
2026-05-07 08:13 55.61685 12.64089 19 ft 14 kts 176°
2026-05-07 08:14 55.61588 12.64017 22 ft 27 kts 221°
2026-05-07 08:14 55.61224 12.63453 22 ft 109 kts 221°
2026-05-07 08:14 55.60489 12.62311 29 ft 168 kts 221°
2026-05-07 08:14 55.59586 12.60912 640 ft 172 kts 222°
2026-05-07 08:15 55.58679 12.59521 1469 ft 172 kts 221°
2026-05-07 08:15 55.57759 12.58107 2150 ft 183 kts 221°
2026-05-07 08:15 55.56745 12.56551 2555 ft 204 kts 220°
2026-05-07 08:15 55.55451 12.55229 2934 ft 228 kts 202°
2026-05-07 08:16 55.53881 12.54202 3483 ft 253 kts 197°
2026-05-07 08:16 55.52095 12.53756 4277 ft 266 kts 173°
2026-05-07 08:16 55.50348 12.54782 5298 ft 268 kts 145°
2026-05-07 08:16 55.49076 12.57160 6306 ft 271 kts 116°
2026-05-07 08:17 55.48613 12.60353 7258 ft 272 kts 86°
2026-05-07 08:17 55.49079 12.63559 8219 ft 273 kts 58°
2026-05-07 08:17 55.50359 12.66019 9168 ft 276 kts 34°
2026-05-07 08:17 55.51946 12.67986 10152 ft 282 kts 33°
2026-05-07 08:18 55.53608 12.70033 10676 ft 303 kts 33°
2026-05-07 08:18 55.55400 12.72247 11097 ft 324 kts 34°
2026-05-07 08:18 55.57271 12.74575 11847 ft 333 kts 34°
2026-05-07 08:18 55.59179 12.76965 12703 ft 339 kts 34°
2026-05-07 08:19 55.61121 12.79406 13556 ft 346 kts 34°
2026-05-07 08:19 55.63095 12.81894 14366 ft 352 kts 34°
2026-05-07 08:19 55.65103 12.84432 15163 ft 356 kts 34°
2026-05-07 08:19 55.67129 12.87003 15959 ft 361 kts 34°
2026-05-07 08:20 55.69185 12.89614 16726 ft 366 kts 34°
2026-05-07 08:20 55.71271 12.92264 17479 ft 372 kts 34°
2026-05-07 08:20 55.73392 12.94958 18233 ft 378 kts 34°
2026-05-07 08:20 55.75549 12.97694 18906 ft 384 kts 34°
2026-05-07 08:21 55.77731 13.00463 19572 ft 388 kts 33°
2026-05-07 08:21 55.79944 13.03276 20227 ft 393 kts 33°
2026-05-07 08:21 55.82182 13.06126 20843 ft 399 kts 33°
2026-05-07 08:21 55.84428 13.08990 21430 ft 405 kts 33°
2026-05-07 08:22 55.86730 13.11936 22044 ft 410 kts 34°
2026-05-07 08:22 55.89060 13.14922 22697 ft 415 kts 33°
2026-05-07 08:22 55.91416 13.17941 23329 ft 419 kts 33°
2026-05-07 08:22 55.93802 13.21003 23887 ft 424 kts 33°
2026-05-07 08:23 55.96205 13.24092 24410 ft 428 kts 33°
2026-05-07 08:23 55.98630 13.27217 24938 ft 431 kts 33°
2026-05-07 08:23 56.01071 13.30375 25467 ft 435 kts 34°
2026-05-07 08:23 56.03529 13.33559 25986 ft 438 kts 34°
2026-05-07 08:24 56.06007 13.36766 26513 ft 441 kts 33°
2026-05-07 08:24 56.08506 13.40000 27032 ft 445 kts 34°
2026-05-07 08:24 56.11020 13.43259 27544 ft 448 kts 34°
2026-05-07 08:24 56.13554 13.46553 28077 ft 451 kts 33°
2026-05-07 08:25 56.16101 13.49872 28564 ft 455 kts 33°
2026-05-07 08:25 56.18670 13.53230 29053 ft 458 kts 33°
2026-05-07 08:25 56.21252 13.56613 29522 ft 461 kts 34°
2026-05-07 08:25 56.23856 13.60031 29983 ft 465 kts 34°
2026-05-07 08:26 56.29112 13.66951 30755 ft 471 kts 34°
2026-05-07 08:26 56.31762 13.70451 31141 ft 474 kts 34°
2026-05-07 08:26 56.34425 13.73971 31621 ft 474 kts 34°
2026-05-07 08:27 56.37080 13.77486 32198 ft 473 kts 34°
2026-05-07 08:27 56.39737 13.81006 32737 ft 473 kts 34°
2026-05-07 08:27 56.42383 13.84519 33273 ft 472 kts 34°
2026-05-07 08:27 56.45025 13.88036 33809 ft 472 kts 34°
2026-05-07 08:28 56.47666 13.91564 34251 ft 472 kts 34°
2026-05-07 08:28 56.50309 13.95101 34490 ft 472 kts 34°
2026-05-07 08:28 56.52945 13.98639 34721 ft 471 kts 34°
2026-05-07 08:28 56.55572 14.02175 34934 ft 471 kts 34°
2026-05-07 08:29 56.58207 14.05718 35041 ft 470 kts 34°
2026-05-07 08:29 56.60815 14.09256 35062 ft 467 kts 34°
2026-05-07 08:29 56.65984 14.16343 35060 ft 465 kts 35°
2026-05-07 08:30 56.71105 14.23402 35063 ft 465 kts 35°
2026-05-07 08:30 56.76260 14.30511 35060 ft 466 kts 34°
2026-05-07 08:31 56.81439 14.37594 35056 ft 465 kts 34°
2026-05-07 08:31 56.86632 14.44622 35067 ft 464 kts 34°
2026-05-07 08:32 56.91819 14.51682 35058 ft 464 kts 34°
2026-05-07 08:32 56.96991 14.58763 35054 ft 464 kts 34°
2026-05-07 08:33 57.02157 14.65876 35048 ft 464 kts 34°
2026-05-07 08:33 57.07320 14.73000 35063 ft 464 kts 34°
2026-05-07 08:34 57.12480 14.80148 34673 ft 464 kts 34°
2026-05-07 08:34 57.15056 14.83728 34084 ft 464 kts 34°
2026-05-07 08:34 57.17633 14.87314 33416 ft 463 kts 34°
2026-05-07 08:35 57.20192 14.90883 32825 ft 460 kts 34°
2026-05-07 08:35 57.22741 14.94444 32223 ft 458 kts 34°
2026-05-07 08:35 57.25274 14.97993 31621 ft 456 kts 34°
2026-05-07 08:35 57.27797 15.01534 31026 ft 454 kts 34°
2026-05-07 08:36 57.30307 15.05060 30468 ft 452 kts 34°
2026-05-07 08:36 57.32807 15.08582 29806 ft 451 kts 34°
2026-05-07 08:36 57.34456 15.10909 29416 ft 448 kts 34°
2026-05-07 08:36 57.36927 15.14396 28876 ft 444 kts 34°
2026-05-07 08:37 57.39366 15.17851 28345 ft 439 kts 34°
2026-05-07 08:37 57.41777 15.21279 27829 ft 434 kts 34°
2026-05-07 08:37 57.44158 15.24676 27318 ft 429 kts 34°
2026-05-07 08:37 57.46513 15.28046 26823 ft 425 kts 34°
2026-05-07 08:38 57.48841 15.31376 26335 ft 420 kts 34°
2026-05-07 08:38 57.51147 15.34679 25864 ft 416 kts 34°
2026-05-07 08:38 57.53420 15.37942 25401 ft 411 kts 34°
2026-05-07 08:38 57.55667 15.41178 24959 ft 407 kts 34°
2026-05-07 08:39 57.57898 15.44391 24514 ft 403 kts 34°
2026-05-07 08:39 57.60106 15.47564 24069 ft 399 kts 34°
2026-05-07 08:39 57.62293 15.50709 23622 ft 395 kts 34°
2026-05-07 08:39 57.64462 15.53833 23125 ft 391 kts 34°
2026-05-07 08:40 57.66599 15.56926 22688 ft 386 kts 34°
2026-05-07 08:40 57.68704 15.59992 22242 ft 381 kts 34°
2026-05-07 08:40 57.70781 15.63022 21801 ft 377 kts 35°
2026-05-07 08:40 57.72838 15.66023 21363 ft 374 kts 35°
2026-05-07 08:41 57.74882 15.69004 20917 ft 370 kts 35°
2026-05-07 08:41 57.76905 15.71957 20481 ft 367 kts 35°
2026-05-07 08:41 57.78914 15.74894 20030 ft 364 kts 35°
2026-05-07 08:41 57.80906 15.77807 19594 ft 362 kts 35°
2026-05-07 08:42 57.82884 15.80697 19158 ft 359 kts 35°
2026-05-07 08:42 57.84845 15.83572 18726 ft 357 kts 35°
2026-05-07 08:42 57.86794 15.86443 18301 ft 355 kts 35°
2026-05-07 08:42 57.88727 15.89299 17819 ft 353 kts 35°
2026-05-07 08:43 57.90647 15.92135 17397 ft 349 kts 35°
2026-05-07 08:43 57.92544 15.94934 16982 ft 345 kts 35°
2026-05-07 08:43 57.94427 15.97714 16570 ft 342 kts 35°
2026-05-07 08:43 57.96290 16.00468 16165 ft 339 kts 35°
2026-05-07 08:44 57.98138 16.03199 15759 ft 336 kts 35°
2026-05-07 08:44 57.99971 16.05913 15354 ft 333 kts 35°
2026-05-07 08:44 58.01783 16.08607 14985 ft 330 kts 35°
2026-05-07 08:44 58.03581 16.11281 14566 ft 329 kts 35°
2026-05-07 08:45 58.05371 16.13944 14170 ft 326 kts 35°
2026-05-07 08:45 58.07147 16.16592 13769 ft 324 kts 36°
2026-05-07 08:45 58.08904 16.19222 13355 ft 321 kts 36°
2026-05-07 08:45 58.10646 16.21833 12944 ft 318 kts 36°
2026-05-07 08:46 58.12367 16.24416 12544 ft 314 kts 36°
2026-05-07 08:46 58.14072 16.26967 12156 ft 311 kts 36°
2026-05-07 08:46 58.15757 16.29492 11752 ft 307 kts 36°
2026-05-07 08:46 58.17400 16.31958 11363 ft 304 kts 36°
2026-05-07 08:47 58.19051 16.34441 10975 ft 302 kts 37°
2026-05-07 08:47 58.20688 16.36910 10577 ft 299 kts 37°
2026-05-07 08:47 58.22308 16.39358 10214 ft 296 kts 37°
2026-05-07 08:47 58.23903 16.41771 9957 ft 291 kts 37°
2026-05-07 08:48 58.25478 16.44151 9790 ft 289 kts 37°
2026-05-07 08:48 58.27056 16.46519 9616 ft 290 kts 34°
2026-05-07 08:48 58.28793 16.48408 9205 ft 286 kts 20°
2026-05-07 08:48 58.30655 16.49680 8772 ft 283 kts 17°
2026-05-07 08:49 58.32515 16.50918 8332 ft 282 kts 17°
2026-05-07 08:49 58.34384 16.52165 7892 ft 280 kts 18°
2026-05-07 08:49 58.36193 16.53379 7468 ft 278 kts 18°
2026-05-07 08:49 58.38010 16.54604 7065 ft 276 kts 18°
2026-05-07 08:50 58.39806 16.55826 6671 ft 273 kts 18°
2026-05-07 08:50 58.41592 16.57039 6269 ft 271 kts 18°
2026-05-07 08:50 58.43365 16.58245 5843 ft 269 kts 18°
2026-05-07 08:50 58.45123 16.59440 5412 ft 268 kts 18°
2026-05-07 08:51 58.46864 16.60621 4990 ft 265 kts 19°
2026-05-07 08:51 58.48599 16.61796 4544 ft 264 kts 19°
2026-05-07 08:51 58.50365 16.62667 4108 ft 262 kts
2026-05-07 08:51 58.52153 16.62775 3952 ft 250 kts 360°
2026-05-07 08:52 58.53845 16.62831 3885 ft 237 kts
2026-05-07 08:52 58.55443 16.62898 3840 ft 221 kts
2026-05-07 08:52 58.56918 16.62728 3744 ft 206 kts 341°
2026-05-07 08:52 58.57991 16.61144 3587 ft 195 kts 300°
2026-05-07 08:53 58.58287 16.58684 3373 ft 189 kts 270°
2026-05-07 08:53 58.58304 16.56206 3130 ft 182 kts 271°
2026-05-07 08:53 58.58327 16.53821 2870 ft 176 kts 271°
2026-05-07 08:53 58.58350 16.51515 2629 ft 171 kts 271°
2026-05-07 08:54 58.58374 16.49280 2398 ft 166 kts 271°
2026-05-07 08:54 58.58395 16.47084 2170 ft 164 kts 269°
2026-05-07 08:54 58.58417 16.44897 1937 ft 162 kts 269°
2026-05-07 08:54 58.58437 16.42786 1737 ft 154 kts 268°
2026-05-07 08:55 58.58457 16.40791 1515 ft 145 kts 268°
2026-05-07 08:55 58.58476 16.38878 1317 ft 142 kts 267°
2026-05-07 08:55 58.58493 16.37000 1119 ft 141 kts 269°
2026-05-07 08:55 58.58512 16.35136 921 ft 139 kts 269°
2026-05-07 08:56 58.58522 16.33281 737 ft 139 kts 267°
2026-05-07 08:56 58.58544 16.31434 544 ft 139 kts 270°
2026-05-07 08:56 58.58556 16.29589 360 ft 138 kts 270°
2026-05-07 08:56 58.58574 16.27747 146 ft 138 kts 269°
2026-05-07 08:57 58.58589 16.25937 29 ft 129 kts 269°
2026-05-07 08:57 58.58598 16.24599 21 ft 71 kts 271°
2026-05-07 08:57 58.58608 16.23951 18 ft 35 kts 271°
2026-05-07 08:57 58.58611 16.23547 18 ft 28 kts 270°
2026-05-07 08:58 58.58608 16.23314 19 ft 9 kts 268°
2026-05-07 08:58 58.58573 16.23246 20 ft 7 kts 187°
2026-05-07 08:58 58.58551 16.23242 22 ft 3 kts 183°
2026-05-07 08:58 58.58505 16.23241 24 ft 8 kts 180°
2026-05-07 08:59 58.58462 16.23276 27 ft 7 kts 127°
2026-05-07 08:59 58.58454 16.23364 24 ft 6 kts 92°
2026-05-07 08:59 58.58435 16.23382 26 ft 3 kts 200°
2026-05-07 08:59 58.58419 16.23358 25 ft 2 kts 218°
2026-05-07 09:00 58.58412 16.23347 25 ft 0 kts 217°